OPS 4682 DEB, 11631

Orbit data source: Space-Track

OPS 4682 DEB, 11631 is space debris in LEO originally from a launch on Sat, 03 Apr 1965 UTC launched from the Air Force Western Test Range (AFWTR). Debris objects in space refer to the collection of defunct objects orbiting the Earth. Examples of debris include non-operational satellites, rocket bodies, and fragments generated from explosions, collisions, or faulty payload assembly.

Loading next visibility...
Identifier
11631, 1965-027F
Orbit
LEO
Country
Flag of USUS
Related business
Manufacturer
Unknown
Mission
Spacecraft
Bus & Motor
Unknown
Mass
Unknown
Launch date (UTC)
1965-04-03 (61 years ago)
Launch vehicle
Unknown
Launch site
Air Force Western Test Range (AFWTR)
Object type
Payload
Rocket body
Debris
Shape & HBR
Unknown shape, 0.1 m
Radar Cross Section
Medium (>0.1 m² and <1 m²)

Expand to show TLE details & history
Last TLE update: 1 day ago

TLE from 1 day ago
0 OPS 4682 DEB
1 11631U 65027F   26262.27184317  .00000006  00000-0 -61565-5 0  9998
2 11631  90.2504   8.0642 0041939 185.0145 203.6100 12.96783553137972
Epoch: 2026-09-19T06:31Z
TLE epoch observation values (Epoch: 2026-09-19T06:31:27.249Z)
Latitude
28.4723°
Longitude
-88.11722°
Altitude
1,307.664 km
Speed
7.191 km/s
True Right ascension
00h 31m 42s
True Declination
28° 20' 19"
Sunlit
Object was in full shadow at epoch
Visualization orbit readout
Latitude
Unknown
Longitude
Unknown
Altitude
Unknown
Speed
Unknown
Apparent Right ascension
Unknown
Apparent Declination
Unknown
Sunlit
N/A
Visualization observer readout
Local Sidereal Time
06:07:34
Azimuth
Unknown
Elevation
Unknown
Doppler factor
Unknown
Orbital elements
Apogee altitude
1,303.93 km
Perigee altitude
1,239.763 km
Semi-major axis
7,649.984 km
Eccentricity
0.00419
Inclination
90.2504°
RAAN
8.0642°
Arg. of periapsis
185.0145°
True anomaly
203.41844°
Mean anomaly
203.61°
Eccentric anomaly
203.51413°
Mean motion
3.24379 °/min
Orbital period
110.98 mins
BSTAR
-0.0000061565
Loading maneuver chart data...
Computing Atmospheric mass density...
Loading historical data...
Loading historical data...
Loading historical data...
Loading historical data...
Loading historical data...
Loading historical data...
Loading historical data...

Documentation

Showing up to 5 results
|